Dewpoint
73 74 74 75 75 75 76 76 75 75 75 75 75 76 76 76 76 76 76 76 76 76 76 76 76 76 76 76 76 76 76 76 76 76 76 75 75 76 76 76 75 76 75 76 75 76 76 76 76 76 76 76 76 76 75 75 75 75 75 75 75 75 75 75 75 75 75 75 75 74 74 73 73 72 72 72 72 71 72 73 74 73 73 74 75
72 73 74 75 75 75 76 75 76 75 75 75 76 76 76 76 76 77 76 76 76 76 76 76 76 76 76 76 76 76 75 75 76 76 75 75 75 76 75 75 75 75 75 76 76 76 76 75 75 76 76 76 76 75 75 75 75 75 75 75 75 75 75 75 75 75 75 75 74 73 73 73 72 72 72 72 71 72 73 74 75 73 74 74 75
72 73 73 74 75 75 76 76 76 76 75 75 76 76 76 76 76 76 76 76 76 76 76 76 76 76 75 76 76 76 76 76 75 75 76 76 76 76 76 75 76 76 76 75 75 75 76 75 75 76 75 75 76 76 75 75 74 74 75 75 75 75 75 75 75 75 75 74 74 74 74 74 73 73 74 74 74 73 74 74 75 75 73 74 75
72 72 73 75 75 75 76 76 76 76 76 76 76 76 76 76 76 76 76 76 76 76 76 76 76 76 76 76 76 76 76 75 75 75 75 76 76 75 75 75 75 76 76 76 75 75 75 75 76 76 75 74 76 76 75 74 74 74 74 75 74 75 75 75 75 75 74 73 73 73 73 72 73 74 74 74 74 74 75 75 75 75 74 74 74
72 72 73 74 74 75 76 76 77 76 76 76 76 76 76 76 76 76 76 76 76 76 76 76 76 76 76 76 75 75 75 75 75 75 75 75 75 75 76 75 76 75 76 75 75 75 75 75 75 76 75 75 75 76 75 75 75 75 75 75 75 75 75 75 75 75 75 72 73 73 72 72 72 73 74 74 74 74 76 75 75 75 74 74 75
71 71 72 72 72 74 76 76 77 77 77 76 76 76 76 76 76 76 76 76 76 76 76 76 76 76 76 76 76 75 75 75 75 75 75 75 75 75 75 75 75 75 75 75 76 75 75 75 76 76 76 76 75 76 76 75 74 75 75 74 74 75 74 75 75 75 75 74 72 72 72 72 72 73 74 75 75 76 75 75 75 75 74 74 74
70 71 71 72 73 74 75 76 77 77 77 76 76 76 76 76 76 76 76 76 76 76 76 76 76 75 75 75 75 75 76 76 75 75 75 75 75 75 75 75 75 75 75 75 75 75 75 75 76 76 76 76 75 76 76 75 75 74 75 75 76 76 75 75 75 75 74 74 75 73 71 72 72 72 74 75 74 74 75 75 74 75 74 74 74
69 70 71 72 73 74 75 76 76 76 77 76 76 77 76 76 76 76 76 76 76 76 76 76 75 75 75 75 75 76 76 75 75 75 75 75 75 75 75 75 75 74 75 75 75 75 75 75 76 75 75 75 75 76 76 75 74 74 74 75 76 76 75 75 75 75 74 74 75 76 70 71 71 72 73 74 74 74 74 74 74 74 74 74 74
69 70 71 72 73 75 75 76 76 76 76 76 77 77 77 77 76 76 76 76 75 75 75 75 75 75 75 75 75 75 75 75 74 75 75 75 75 74 75 75 75 75 75 75 75 75 75 75 76 76 75 75 74 75 76 75 75 75 75 75 75 75 75 75 75 75 74 74 75 75 71 71 70 71 73 74 74 74 74 73 73 75 74 74 74
70 70 71 72 73 75 75 76 76 76 76 77 77 77 76 76 76 76 76 75 75 75 75 75 75 75 75 75 75 75 74 74 74 74 75 74 74 74 74 75 75 75 74 75 75 75 75 75 76 75 75 74 75 75 75 76 76 76 76 75 75 75 75 75 74 74 73 75 75 70 70 72 71 72 73 74 74 74 73 73 74 74 73 75 75
69 70 71 72 73 76 76 76 77 76 76 77 77 77 77 76 76 76 76 76 75 75 74 74 75 75 74 74 75 75 75 74 74 75 75 74 74 74 74 74 75 75 75 74 74 74 75 75 75 75 75 75 75 75 75 76 76 76 75 75 75 75 75 74 73 72 73 72 70 70 71 73 71 71 73 73 74 73 74 73 74 73 73 74 74
69 70 71 73 76 76 76 76 76 76 76 77 77 76 76 76 76 76 76 75 75 75 75 75 75 75 75 75 75 75 75 75 75 74 75 74 75 74 74 75 75 74 75 74 74 74 74 75 75 75 75 75 75 76 76 75 74 75 74 74 74 75 74 72 73 72 71 69 70 70 70 70 71 71 73 73 74 74 74 74 73 73 73 73 74
69 70 72 74 75 77 76 76 76 76 76 77 77 76 76 76 76 76 76 76 75 75 75 75 75 74 74 75 75 75 75 75 74 74 75 74 74 74 75 75 75 75 74 74 74 75 75 75 75 75 75 75 75 75 75 75 75 74 73 71 73 75 74 73 73 72 72 72 71 72 72 71 71 74 73 73 73 74 74 73 73 73 73 73 73
69 70 72 72 74 77 77 76 76 76 77 77 77 76 75 76 75 75 75 75 75 75 75 74 75 75 75 75 75 75 75 75 75 74 74 75 74 74 75 74 74 74 75 74 74 74 74 75 75 75 75 75 75 75 74 74 74 73 71 72 73 73 73 73 73 72 72 71 72 71 72 73 72 75 73 73 73 73 73 73 73 73 73 73 73
68 69 70 72 73 75 77 76 76 77 77 76 76 76 76 76 75 75 75 75 75 75 74 74 75 74 75 75 75 75 75 75 74 74 74 74 73 74 74 74 75 75 74 74 74 74 74 74 74 75 74 74 74 74 74 75 74 73 71 72 73 74 74 73 73 73 70 71 72 71 72 73 74 74 74 74 73 73 73 73 73 72 72 72 72
68 68 69 69 72 75 75 77 76 76 76 76 75 75 76 76 75 75 75 75 75 75 74 75 75 75 75 75 75 75 75 74 75 75 74 74 74 74 74 75 75 75 75 75 75 74 74 74 74 74 74 74 74 74 74 75 75 73 72 72 74 75 75 74 74 73 70 71 72 73 72 73 75 75 75 74 74 73 73 73 73 73 73 72 73
67 67 67 68 70 72 73 74 75 76 76 76 75 75 76 76 75 75 75 75 75 75 75 74 74 75 75 75 75 75 75 75 75 75 75 74 74 73 74 74 74 75 75 75 75 75 75 74 74 74 74 74 74 74 74 75 75 74 74 71 73 74 74 73 73 70 70 72 72 72 72 73 75 75 75 74 74 74 74 73 73 73 72 72 73
67 66 66 67 69 70 71 73 74 74 75 75 75 75 76 75 75 75 75 75 75 74 74 74 74 75 75 75 75 74 75 75 75 75 75 74 74 74 74 74 75 75 75 75 75 75 75 75 74 73 73 74 75 74 74 74 74 74 74 73 72 73 73 72 72 71 70 72 72 73 73 75 75 75 75 75 75 75 74 73 73 73 72 73 73
67 65 65 66 67 69 69 73 74 74 75 75 75 75 75 75 75 74 74 75 75 74 74 75 75 75 75 75 75 75 75 75 75 75 75 74 74 74 74 74 74 74 74 75 75 74 74 74 74 74 74 75 75 75 74 74 74 74 74 73 73 73 72 71 71 70 71 71 72 73 74 76 75 75 75 74 74 75 74 74 73 73 73 73 73
65 65 65 66 67 68 70 71 71 73 74 74 74 74 74 75 75 75 75 75 75 75 75 75 75 75 75 75 75 75 74 74 76 74 75 74 74 73 74 75 75 74 74 74 74 74 74 74 75 75 75 75 75 75 74 74 73 73 73 74 74 74 74 77 72 70 70 71 73 73 75 75 75 75 75 75 74 75 74 74 73 73 73 73 73
64 65 67 68 67 68 70 70 71 72 72 73 74 74 74 75 74 75 75 75 75 75 75 75 75 75 75 74 74 74 75 75 74 73 75 73 75 74 75 75 75 75 75 75 75 75 74 74 75 75 76 76 75 75 75 74 73 73 73 72 74 75 75 75 72 72 71 73 73 74 76 75 75 75 74 74 74 74 74 73 73 73 73 73 73
67 68 69 69 70 70 70 70 71 72 72 73 73 74 75 74 74 74 74 74 75 75 75 75 76 75 75 75 75 75 75 75 74 74 74 75 75 75 75 75 75 74 74 74 75 75 75 74 74 75 76 76 75 74 75 74 74 73 74 74 74 74 74 74 72 72 72 73 74 75 75 75 75 75 74 74 74 74 74 74 73 73 73 73 73
68 69 69 69 71 72 71 69 72 72 71 71 73 74 74 75 74 74 74 75 75 75 75 75 75 75 75 75 76 75 75 75 75 74 74 75 75 75 75 75 75 74 74 75 75 75 75 75 75 75 76 76 73 73 73 73 74 75 74 74 72 74 74 73 72 72 72 73 73 75 74 75 75 74 74 74 74 74 74 74 73 73 73 73 72
68 69 70 70 71 71 71 70 72 72 72 72 73 74 74 74 74 74 74 75 75 74 75 75 76 75 75 75 75 75 75 76 75 75 74 74 74 75 75 75 75 75 75 75 75 75 75 75 75 75 75 76 74 70 69 72 73 74 75 75 70 71 72 71 71 72 72 73 74 75 75 75 75 74 74 74 74 74 74 74 74 73 73 72 72
66 70 70 70 71 71 69 72 73 72 72 73 73 73 74 74 73 74 74 75 74 75 75 75 76 76 75 75 75 74 74 74 75 75 74 75 74 74 74 75 75 75 75 75 75 75 75 75 74 75 75 74 73 69 69 71 73 72 72 67 68 68 67 70 71 72 73 74 75 75 75 75 74 74 74 74 74 74 74 74 73 73 73 73 73
68 68 68 70 69 69 67 70 72 72 72 73 74 75 75 75 75 75 74 75 74 74 75 75 75 76 76 75 75 75 75 75 74 74 75 75 75 74 75 76 75 75 76 76 75 75 75 74 74 74 73 74 72 67 67 69 67 67 69 71 69 70 68 68 70 72 73 74 75 75 75 75 74 74 74 74 74 74 74 74 74 73 73 73 73
68 69 69 69 69 69 68 69 72 73 73 73 73 74 73 75 75 75 74 74 75 75 75 75 75 76 76 76 75 75 75 75 74 75 75 75 75 75 75 76 75 75 76 75 75 76 76 75 74 73 75 74 67 68 69 65 67 65 68 68 69 67 69 69 70 71 73 74 75 75 75 75 74 74 74 74 74 74 74 74 73 73 73 73 73
67 67 67 68 68 66 68 69 72 72 72 72 73 74 75 74 74 75 75 75 75 76 76 75 75 75 75 75 76 75 75 75 74 75 74 75 74 75 75 77 76 76 77 78 74 75 74 76 76 75 73 67 63 69 63 66 66 70 66 68 68 68 70 68 69 70 72 73 74 74 74 74 74 74 73 73 73 73 73 73 74 73 73 72 73
65 65 66 65 65 66 67 68 71 72 72 72 71 72 74 74 73 74 74 75 76 76 75 75 76 76 75 75 75 74 73 73 73 73 74 75 75 75 76 76 75 75 75 76 76 75 76 76 76 73 76 72 70 68 70 64 69 69 67 66 64 69 69 69 69 68 70 73 73 74 74 74 74 74 73 73 73 73 73 73 73 73 72 73 72
64 64 64 65 65 65 66 67 69 72 72 72 77 72 75 75 73 72 73 75 74 74 74 74 76 73 75 74 74 74 75 73 72 73 75 73 74 74 74 75 77 77 77 74 77 77 76 75 76 73 70 72 75 72 71 65 61 63 67 66 65 64 72 70 70 69 70 71 73 74 75 74 74 74 73 73 73 73 73 73 73 73 72 73 73
63 63 62 64 66 65 66 67 69 73 72 71 73 72 73 75 74 73 75 73 75 73 74 75 72 74 74 74 73 74 72 71 72 74 75 74 75 74 74 76 73 74 75 75 76 75 75 78 75 75 73 77 73 72 71 73 70 65 66 64 64 67 67 69 67 67 67 69 71 73 74 75 74 74 74 74 73 73 73 73 73 73 73 73 72
62 62 62 64 63 64 66 67 69 71 73 70 72 72 73 73 73 72 73 72 72 72 74 71 72 72 73 74 74 74 73 71 72 72 74 74 75 74 75 75 73 75 74 73 74 74 75 77 77 77 77 77 76 76 73 70 68 64 69 64 66 66 67 67 63 64 68 70 71 71 73 73 74 74 74 74 74 74 74 73 73 73 73 73 73
61 61 62 63 62 64 66 67 68 71 72 69 71 73 71 70 69 70 70 69 72 70 71 71 73 73 74 74 74 74 74 72 73 73 74 75 73 75 73 73 73 74 75 73 73 76 77 76 78 77 78 76 72 73 72 68 66 67 67 65 70 68 69 70 66 64 66 70 71 71 72 73 74 74 75 74 74 74 74 74 74 74 73 73 73
60 61 60 61 62 64 65 66 69 70 71 69 72 71 71 69 70 69 72 71 68 69 70 72 73 74 75 76 76 77 77 74 73 74 74 74 73 73 74 74 73 73 74 76 76 77 76 76 74 76 75 76 71 72 69 70 68 70 68 65 70 74 70 64 65 64 64 65 71 72 73 73 74 75 75 75 75 75 74 74 75 75 74 75 74
60 59 60 61 63 64 64 65 69 70 69 70 69 70 69 68 68 69 69 71 69 69 68 70 71 71 73 75 77 77 78 77 75 75 72 74 72 72 73 74 75 77 77 78 77 77 77 76 78 76 72 74 72 71 71 74 68 70 72 70 71 71 73 67 68 67 66 67 68 70 72 73 74 74 74 74 75 76 75 75 75 75 75 75 75
59 59 61 61 63 63 65 65 68 69 69 71 71 71 69 70 69 70 70 71 68 67 68 67 68 70 72 74 76 77 77 78 78 77 75 73 73 74 73 76 77 77 77 80 77 76 77 77 73 75 77 66 72 72 73 73 69 66 70 72 71 72 72 69 68 63 63 68 68 69 70 72 74 74 75 73 74 75 76 76 75 75 75 75 75
58 58 61 62 64 62 65 64 67 68 70 69 71 72 72 71 70 68 67 71 66 66 67 66 68 69 72 73 76 78 79 78 78 77 78 76 76 74 75 76 78 78 79 79 78 77 78 71 77 75 75 75 70 65 69 73 69 66 66 64 70 72 72 74 69 67 64 69 67 64 67 70 72 76 75 74 74 74 76 76 75 75 75 75 75
60 59 62 61 62 62 63 64 66 67 69 71 72 71 71 73 70 69 73 68 65 65 66 68 70 71 73 75 78 77 78 78 79 80 79 76 75 74 75 76 77 79 80 77 79 76 76 76 79 78 76 76 75 70 67 68 63 64 68 62 72 69 72 71 73 74 73 69 70 65 64 63 67 67 69 73 72 74 72 76 76 76 75 76 75
59 60 62 65 64 64 66 69 66 68 70 73 74 73 72 73 68 70 70 72 72 69 69 71 71 71 72 76 78 77 78 78 79 79 81 78 76 75 76 77 77 79 79 78 76 76 75 76 75 76 78 77 76 73 72 74 64 62 61 63 69 74 74 69 72 70 69 62 63 63 60 66 65 68 71 70 73 72 73 73 75 75 75 76 76
60 63 66 65 67 66 66 70 70 68 71 72 72 71 71 70 67 69 69 71 70 71 71 70 71 73 73 74 77 77 78 78 78 78 79 79 77 76 76 77 77 77 77 74 76 77 75 75 75 71 75 75 75 76 74 70 67 69 70 66 71 73 71 69 68 68 68 64 71 71 63 63 64 65 64 65 69 72 73 75 76 75 74 76 77
62 63 63 63 63 64 68 69 69 71 72 72 71 70 69 70 70 67 68 68 72 71 68 70 71 72 73 75 77 75 78 77 78 78 77 78 78 78 78 77 77 77 76 76 76 74 77 76 76 79 73 76 75 73 70 71 72 71 75 69 75 71 71 72 66 62 61 62 66 67 68 64 65 67 71 66 69 67 71 73 75 76 75 75 75
62 62 64 64 65 64 67 67 69 71 72 71 72 71 71 70 69 67 67 68 71 72 71 72 71 72 76 77 77 75 77 78 78 78 77 78 78 77 77 78 79 79 77 77 76 76 77 76 75 76 77 75 77 68 68 72 75 67 69 67 68 69 74 66 61 57 59 59 61 66 67 58 58 60 64 70 73 67 69 72 75 75 77 77 75
60 60 64 64 65 67 70 70 69 70 71 71 73 73 72 73 69 68 67 68 69 70 69 72 71 72 73 75 78 77 77 77 78 78 76 77 78 78 78 78 78 77 78 77 77 77 79 74 76 77 75 74 76 74 73 73 69 70 74 73 67 66 73 69 63 60 56 56 56 57 60 58 58 62 64 66 66 67 66 70 74 73 76 79 77
61 60 62 64 64 70 71 72 71 70 72 73 73 72 72 74 74 75 72 72 72 74 74 73 73 71 71 73 77 77 76 74 75 75 77 77 77 78 77 76 79 79 80 79 77 77 77 80 74 75 75 70 69 71 70 73 71 69 69 68 66 64 66 68 67 68 66 56 54 53 56 54 57 65 67 65 63 69 69 69 73 76 76 76 78
59 61 62 63 63 67 71 72 72 71 72 73 74 75 74 74 75 75 75 75 74 74 73 72 71 73 71 73 74 76 76 75 74 75 76 78 78 78 78 78 77 78 77 78 79 73 75 74 75 77 75 74 72 70 72 66 69 72 74 73 65 68 67 64 64 71 63 58 53 54 64 55 57 67 73 63 65 68 64 68 73 74 76 78 77
60 61 61 62 64 67 70 73 72 72 71 73 75 75 75 74 76 75 74 75 73 73 72 71 70 71 69 70 73 72 73 74 75 76 75 77 78 78 78 76 76 80 77 77 77 76 75 73 75 74 75 76 76 73 68 74 67 75 73 73 73 70 71 66 65 69 72 64 61 51 62 54 55 67 69 64 62 64 69 68 73 73 73 75 74
59 60 61 63 65 68 71 71 72 73 72 73 74 75 75 75 75 72 72 72 72 72 75 71 71 72 72 71 73 72 75 73 72 75 76 77 78 78 78 78 77 77 77 78 76 72 69 72 73 76 77 80 77 77 74 69 75 76 65 63 67 71 66 73 69 72 67 72 66 54 55 53 55 57 58 58 61 62 71 68 67 68 72 73 73
59 60 60 62 68 71 71 72 73 73 73 73 74 75 75 75 75 73 73 72 69 72 73 73 71 73 73 71 72 72 74 75 74 77 77 76 77 78 78 77 78 75 78 78 76 74 77 76 77 77 79 78 78 76 75 72 74 77 73 71 70 69 69 69 70 70 71 71 68 64 53 52 55 57 58 58 58 61 67 72 68 69 70 73 77
58 60 60 63 68 70 72 73 73 73 74 74 74 75 76 75 74 72 74 73 72 72 72 73 74 73 74 74 75 73 76 77 75 76 76 77 78 77 78 79 77 77 76 76 75 74 74 76 77 79 79 78 78 77 77 78 73 70 77 73 71 72 64 67 66 70 74 69 67 61 64 62 58 58 65 66 57 59 62 65 72 64 72 72 72
58 61 60 61 64 70 72 73 73 73 73 74 75 75 75 75 74 74 73 73 73 74 73 75 75 76 74 75 77 78 72 76 75 76 78 76 77 78 76 75 76 75 75 77 74 75 77 77 76 75 78 77 80 79 76 79 76 76 72 75 78 75 72 72 64 66 67 70 69 64 63 67 67 66 64 64 65 60 62 66 68 64 67 71 74
59 60 59 61 63 67 71 72 73 73 74 74 75 74 75 75 74 74 73 73 73 73 75 74 75 75 74 73 76 78 74 74 74 76 76 75 76 78 73 74 74 77 77 77 76 72 71 73 73 77 77 78 78 78 75 77 77 77 74 77 77 70 75 73 71 69 67 69 69 62 61 64 55 60 67 63 67 66 68 70 63 65 76 73 75